Location: Ottawa
(45.4167°N, 75.7000°W)
Time: 10:44:16
(UTC-04:00)

Envisat - Pass Details

Date: 11 October 2017
Orbit: 764 x 766 km, 98.2° (Epoch: 19 October)

Event Time Altitude Azimuth Distance (km) Brightness Sun altitude
Exits shadow 18:50:30 - 84° (E) 2,607 5.0 -5.4°
Reaches altitude 10° 18:52:57 10° 59° (ENE) 2,309 4.9 -5.9°
Maximum altitude 18:53:24 10° 54° (NE) 2,301 5.0 -5.9°
Drops below altitude 10° 18:53:52 10° 49° (NE) 2,310 5.0 -6.0°
Sets 18:58:48 0° 6° (N) 3,243 6.1 -6.9°
